Track BISONSAT now! 10-day predictions BISONSAT is classified as:
1 40968U 15058E 22144.33017764 +.00004007 +00000+0 +40897-3 0 3805 2 40968 64.7713 134.2956 0192155 207.4222 151.6625 14.79324337 57156